CAPE
1154 792 1014 702 716 711 502 636 648 510 589 612 623 727 991 1063 1106 1031 1025 917 1694 1830 2012 1480 1190 1383 802 367 468 559 387 196 208 203 41 78 577 1065 1769 1592 2166 2626 3142 3594 3279 3538 3073 3112 3099 3508 2461 2709 2322 2234 2425 2879 3823 3407 3117 3188 2570 1611 566 436 441 698 546 491 627 409 484 852 779 1391 1651 1597 1286 1686 1718 1626 988 1098 1037 979 952
956 857 1023 949 644 766 798 596 723 585 857 696 911 1056 1300 1031 1305 1489 1507 1241 1663 2064 2069 1520 1109 1261 664 314 22 30 90 89 168 68 8 32 772 1247 1675 1285 2036 2487 2688 2795 3062 3242 3094 3095 3954 4339 2651 3205 2895 2608 3447 3871 2832 2256 2374 2628 2821 1795 841 693 451 738 846 640 639 480 536 606 836 1308 952 1065 953 914 1012 674 762 998 980 1009 1141
1341 1012 1142 864 705 720 918 617 707 666 892 976 890 1299 1373 1257 1576 1705 1743 1687 1778 2166 2280 1348 1138 964 471 132 2 0 5 0 0 15 0 2 582 1248 1229 1041 1976 2474 2643 2613 2710 2709 2740 3300 3452 4159 2805 3801 2940 3299 2927 4125 4546 3435 2919 3071 2418 2385 784 675 866 924 311 417 455 777 514 656 967 948 859 969 513 472 613 691 551 905 524 440 509
1400 1391 983 878 803 1196 1101 1122 775 806 954 1299 1459 1624 1490 1392 1794 1826 1800 2006 1990 2290 2347 1649 1239 1125 916 333 35 0 5 51 8 71 113 53 391 1296 1107 832 1336 1899 2392 2716 2514 2764 2638 3303 3250 3523 3528 3252 3816 4720 4098 4305 3982 3922 2727 2968 2378 1843 698 507 492 501 858 527 778 410 291 353 744 979 821 701 562 375 466 484 424 604 612 627 529
1266 1406 938 996 1150 1265 1178 1379 1230 1016 1408 1406 1598 1541 1627 1444 2004 2095 2074 2048 2179 2525 2251 1976 1718 1756 1586 965 406 70 97 272 348 318 605 420 260 1166 1318 787 1041 1342 2036 2497 2670 2510 2764 3162 3202 3353 3728 3602 3417 3204 3177 2241 2522 2373 2633 3149 2964 1986 773 481 443 366 412 838 796 571 285 672 413 225 278 288 598 465 417 330 230 470 822 922 753
1316 1287 1253 1108 1328 1506 1565 1398 1445 1451 1458 1623 1431 1892 1988 1919 1968 2428 2137 2121 2212 2366 2246 2313 2227 2258 2186 1662 1267 591 564 648 922 612 491 860 340 187 1122 1019 822 1028 1786 2513 2578 2482 2942 3090 2972 2884 3107 3363 3265 2622 2899 3114 2328 3075 3002 2631 3013 2865 2908 749 419 572 390 233 331 417 363 274 351 296 570 828 832 541 232 20 2 530 812 803 1062
1593 1034 956 1085 1014 1268 1607 1649 1364 1651 1756 1754 1896 2067 2201 2298 2406 2524 2520 2228 2040 2290 2451 2389 2557 2456 2243 1808 1435 1037 1101 1405 1618 872 257 344 368 222 520 1106 888 835 1423 2200 2528 2669 2882 3111 3174 2997 2600 3120 2875 2679 2547 2263 2553 2433 2796 2724 3023 3238 2744 1654 853 508 1038 432 397 420 391 728 335 551 447 838 928 514 323 388 338 245 468 617 853
1049 988 1200 1003 1232 1520 1597 1687 1788 1686 1764 1807 1798 2033 2405 2550 2823 3034 2696 2428 2178 2431 2492 2323 2420 2518 2470 1860 1354 1238 897 1331 1476 1106 176 283 477 352 243 726 937 950 1210 2082 2580 2793 2789 3052 3262 3096 2506 2602 2449 2454 2407 2246 2538 2971 2651 3518 4065 2972 4440 3182 1037 828 1276 1104 659 598 419 598 314 434 688 626 919 1000 988 507 377 189 361 586 671
1162 1587 1748 1156 1607 1615 1715 1802 1665 1670 1635 1836 1975 2015 2285 2686 2898 3066 3027 2815 2486 2689 2565 2390 2550 2540 2431 1927 1530 1302 839 718 879 676 488 523 804 932 540 458 978 1370 1515 1838 2523 2806 2917 2979 3147 3096 2724 2511 2480 2247 1870 1780 2106 3064 3036 4039 4007 3901 3655 3063 2243 1598 943 666 806 1012 838 998 795 483 802 949 1054 1116 1070 364 329 324 587 437 280
1559 1118 1236 1979 1817 1709 1752 1896 1885 1751 1729 1872 1966 1959 2148 2668 3056 3106 2954 2882 2796 2951 2918 2739 2430 2340 2200 2006 1732 1600 1230 907 704 1220 1078 1067 1228 1702 1311 926 1003 1913 2112 1990 2455 2846 2839 2938 2982 3019 2820 2318 2201 2088 1885 1807 2060 2462 3143 3420 3752 4151 4634 3317 2485 2163 1438 1043 1286 1523 1670 1452 1142 810 527 652 772 786 798 492 536 472 723 444 489
1050 922 1338 2108 2016 1912 1879 1976 1974 1736 1674 1962 2066 2043 2212 2579 3080 3196 3210 3064 2881 2978 3034 2929 2378 2144 2210 2117 1965 1958 1771 1426 1096 1452 1758 1588 1690 1805 1808 1387 1081 1222 1700 1952 2184 2734 2869 2912 2656 2624 2703 2302 2473 2320 2446 1902 1798 1902 2398 2799 2970 3710 4064 3904 2521 2331 2225 1996 1435 1762 2084 1294 1426 1144 914 611 787 845 851 1009 817 260 86 505 588
1033 1354 1379 2188 2110 2078 1779 2168 2064 1871 1729 1821 1829 1894 2272 2464 2867 3260 3243 3202 2862 2933 2986 2865 2478 2259 2152 2249 2231 2390 2390 1785 1542 1605 2221 2226 2071 1995 2148 2069 1588 1039 1444 1360 1970 1959 2530 2808 2701 2442 2641 2499 2597 2574 2249 1945 2247 1984 1972 2639 2917 2979 3319 3335 3285 2778 2126 2510 1743 1303 1226 874 696 635 394 586 287 814 834 841 663 751 382 444 270
1291 1361 1659 2027 2239 2251 2213 2325 2409 2210 1974 1983 2117 2235 2340 2619 2968 3269 3385 3289 3224 3207 3006 2905 2747 2342 2193 2298 2317 2529 2653 2504 2103 1817 2539 2641 2723 2291 2311 2429 2373 1645 1112 1130 1515 1864 1949 2439 2693 2709 2841 2809 2867 2726 2490 2790 2724 2610 2632 2449 2715 3118 3098 3194 3180 2983 2481 1704 1474 868 552 493 377 532 403 448 495 602 689 423 415 406 701 728 685
978 1655 1527 2328 2414 2419 2447 2490 2537 2485 2117 2150 2238 2328 2486 2740 3220 3425 3461 3510 3501 3289 3020 2973 2692 2467 2285 2232 2374 2474 2658 2767 2709 2139 2368 2726 2826 2478 2067 2186 2600 2193 1323 1439 1308 1486 1911 2186 2793 2834 2821 3153 3192 3189 3104 3085 3130 2926 2656 2701 2530 2774 3083 3089 3232 2994 2696 2549 2080 1451 685 468 489 368 421 136 248 441 710 618 1275 1029 722 752 549
957 1243 1250 2019 2524 2587 2549 2527 2696 2656 2357 2195 2192 2424 2802 3044 3437 3777 3915 3780 3691 3490 3188 2878 2715 2574 2523 2396 2303 2205 2212 2461 2753 2773 2504 2618 2463 2206 2042 1782 2142 2348 1687 1814 1864 1750 2039 2260 2743 2953 2968 3298 3517 3420 3160 3235 3414 3223 3050 2979 2726 2865 2849 2829 2953 3009 2754 2570 2510 2556 1582 1037 554 529 570 616 633 502 765 778 1296 1613 1126 747 1065
1369 1152 1400 2575 2725 2684 2590 2605 2717 2866 2702 2254 2408 2620 2719 3089 3549 3831 3824 3816 3809 3649 3301 3133 3010 2822 2584 2474 2376 2301 2362 2462 2788 3070 2956 2566 2519 2168 2304 2113 1779 1843 2026 2043 2278 2009 2230 2412 2773 2947 3140 3094 3324 3480 3281 2768 3240 3320 3414 3308 3166 2751 2828 3047 3107 3054 2899 2864 2714 2664 2705 2047 1330 731 1031 1019 981 1366 1798 1590 1156 1238 1566 1569 1162
722 839 1509 2555 2735 2809 2685 2677 2742 2806 2664 2577 2780 2800 2998 3360 3662 4007 4044 3886 3974 4020 3732 3311 3139 2837 2749 2470 2323 2365 2441 2466 2566 3068 2920 2790 2600 2372 2321 2264 1869 1586 1882 1920 2542 2659 2486 2517 2667 2546 2970 3027 3096 3432 3327 2994 3034 3236 3176 3595 3402 2572 2716 3129 2962 2804 2991 2563 2621 2792 3098 2934 2652 2366 2214 1549 1686 2342 2099 1830 1389 975 1453 1487 1475
982 1300 1844 2470 2651 2896 2748 2663 2728 2846 2818 2727 2981 3079 3436 3437 3833 4110 4259 4092 4005 3914 3478 3139 3233 2868 2727 2503 2425 2465 2388 2378 2653 2892 2968 2879 2735 2751 2275 2586 2203 1579 1541 1681 2189 2778 2902 2857 2735 2430 2450 2906 2812 2764 3139 3114 3136 3197 2913 3372 3330 3050 2891 3342 3498 3084 2774 2738 2664 2403 2891 2897 3038 2858 2775 2010 2424 3050 2551 2258 2018 1465 1440 1383 1423
682 1171 1724 2206 2612 2794 2914 2810 2763 2930 3079 3057 3104 3149 3322 3497 3712 3960 4110 4082 3961 3705 3292 3219 3097 2716 2552 2427 2475 2485 2431 2568 2612 2816 3096 2976 2707 2812 2363 2215 2351 1856 1802 1832 2170 2280 2667 2932 2846 2601 2625 2666 2799 2638 2910 3126 3279 3262 2828 3042 3141 3329 3494 3603 3668 3548 3247 2799 2886 2917 2798 2610 2654 2621 2641 1815 2500 3094 3048 2786 2910 2666 2264 1990 1987
467 978 970 699 2024 2698 2757 2670 2702 2903 3157 3068 3007 3026 3026 3425 3640 3915 4059 4159 4151 3736 3373 3256 2953 2517 2457 2566 2553 2646 2748 2734 2656 2887 3136 3019 2880 2745 2642 1844 2408 1964 1857 1890 2085 2266 2481 2853 2924 2440 1832 2399 2801 2743 2775 3123 3304 3226 2768 2424 2225 3151 3402 3214 3162 2819 2905 2837 3055 3052 3086 3088 2912 3063 3001 2551 2503 2891 3231 3191 3232 3277 3264 2905 2804
619 602 526 632 1818 2342 2700 2678 2552 2696 3045 2805 2666 3084 3260 3341 3523 3766 3994 4044 3998 3650 3412 3192 2964 2656 2728 2645 2546 2671 2669 2655 2766 2916 3189 3252 3065 2745 2663 2052 2251 2055 2089 2042 1989 2372 2457 2658 2275 2311 1788 2013 2614 2695 2727 2856 3315 3305 3151 2833 2371 2890 3294 3278 3222 3165 2860 2903 3152 3356 3304 3290 3345 3386 3343 2982 2524 2664 3366 3368 3094 3188 3349 3485 3568
194 659 831 1036 981 2028 2598 2560 2408 2539 2830 3014 2975 3102 3136 3224 3368 3573 3671 3884 3840 3475 3382 3209 2966 2764 2645 2817 2680 2686 2795 2901 2835 2987 3149 3220 3178 2877 2863 2587 1943 2215 2131 2286 2463 2230 2260 2387 2249 2088 2113 1869 2558 2773 2383 2468 3182 3321 3261 2950 2734 2632 3353 3441 3383 3309 3386 3400 3173 3598 3769 3557 3466 3474 3120 3091 2791 2380 2632 3148 3300 3194 3251 3406 3498
13 161 336 532 1125 1473 2279 2564 2434 2406 2771 2915 2799 2818 3109 3177 3236 3371 3598 3738 3605 3332 3213 3220 2993 2882 2909 3076 2899 3003 3010 2934 2734 3076 3036 2920 3072 3209 3026 2826 2211 2171 2224 2380 2770 2504 2493 2638 2446 2224 2543 2341 2701 2697 2598 2510 2842 3268 3400 2796 2532 2877 3279 3441 3320 3248 3306 3403 3447 3605 3626 3637 3223 3253 3559 3403 2796 2520 2339 2401 2455 2826 3113 3150 3132
90 84 99 382 665 1744 2320 2667 2642 2532 2708 2923 3023 3058 3103 3126 3217 3391 3337 3531 3369 3194 3096 3352 3110 3207 3257 3359 3179 3036 2836 2839 2948 2890 2852 2612 2953 3509 3140 2886 2539 2091 2391 2488 2579 2776 2884 2969 2705 2541 2817 2758 2789 3004 2962 2565 2570 3061 3418 3400 2885 2883 3169 3240 2889 2932 3059 3160 3317 3570 3583 3084 3034 3119 3454 3737 3376 2904 2532 2479 2396 2424 2488 2336 2448
18 101 91 180 450 1653 2653 2708 3193 2773 2510 2884 2904 3070 3121 3093 3166 3176 3174 3356 3249 3173 3168 3495 3416 3323 3043 3154 3019 2935 2787 2871 2778 2600 2693 2681 2762 2963 3121 3006 2720 2062 2036 2585 2635 2883 3201 3377 3050 2930 3153 3302 3140 3261 3318 2579 2485 2875 3408 3485 3308 3131 3277 3478 3280 3179 3239 3375 3400 3377 3386 3347 3210 3232 3451 3728 3421 3240 3208 2867 2971 3266 3346 3349 3353
95 199 141 102 1330 2415 3122 3251 3231 2718 2589 3038 3062 2998 3056 3129 3140 3047 3191 3191 3049 3096 3138 3503 3335 3194 3222 3384 3099 2805 2784 2779 2709 2524 2571 2747 2562 2290 2778 2970 2738 2258 1946 2418 2896 2828 3058 3565 3718 3392 3356 3731 3550 3470 3424 3054 2361 2559 3057 3190 3166 3150 3112 3580 3559 3464 3370 3334 3296 3444 3308 3184 3177 3130 3328 3344 3546 3378 3415 3558 3508 3427 3445 3642 4020
12 86 15 636 2806 3010 2980 3412 2876 2625 2484 2869 3067 2973 2907 3149 3118 3007 3145 3034 3064 3026 3222 3457 3399 3155 3265 3497 3296 2776 2738 2894 2954 2544 2657 2704 2345 2026 2177 2779 2750 2351 1999 2088 2778 3076 2878 3417 3808 3817 3740 3918 3911 3713 3910 3696 2916 2515 2889 3176 2699 2962 3240 3351 3608 3504 3075 3052 3207 3119 3200 3214 3269 3225 3232 3272 3388 3631 3528 3571 3863 4006 3998 4001 3931
1089 1340 1414 1236 1508 3035 3279 3144 3002 2751 2428 2646 2905 2859 2801 2967 3107 3132 2794 2616 2806 2941 3120 3454 3428 3135 3471 3550 3552 3250 2635 3048 3051 3138 2819 2481 2285 2010 1989 2309 2697 2464 2134 2007 2253 2866 2952 3101 3674 3855 3829 4026 4210 3963 4150 4119 3640 2823 2520 3092 3176 2660 2831 3235 3186 3387 2682 2050 2186 2542 2558 2874 3166 3582 3682 3461 3264 3079 3653 3820 3837 3991 4083 4220 4279
55 187 582 1069 1603 3048 3315 3108 3011 2737 2486 2471 2679 2807 2943 2953 3084 3109 2967 2950 3018 2969 3145 3424 3622 3472 3911 4052 3932 3474 3016 3097 3329 3332 2895 2597 2523 2411 2260 2498 2897 2694 2292 1918 1888 2232 2969 3079 3353 3689 3760 3602 3960 3938 3978 4089 4165 3474 2789 2672 3348 3177 2813 2811 3038 2748 2627 2289 1667 1608 1772 1988 2919 4342 4039 4227 3854 3844 3617 3743 4073 4234 4345 4298 4353
1 181 490 1068 1538 2464 3456 3391 3437 2842 2626 2256 2540 2950 2795 2913 3072 2978 3029 2993 3076 3142 3436 3524 3709 3854 4076 4240 4246 4103 3551 3444 3398 3527 3582 3081 2775 2679 2321 2372 2895 2928 2748 2421 2163 1970 2452 3108 3278 3637 3720 3516 3599 4001 4008 3739 3974 3923 3242 2499 2945 3374 3164 2642 2854 2938 2286 2183 2194 1682 1237 2016 2604 3885 4366 3935 3923 3893 3856 3648 3556 3894 4405 4500 4216
112 267 358 846 1043 1768 3119 3662 3576 3137 2786 2428 2535 2795 2834 2809 2995 2965 2980 2946 3039 3473 3513 3723 4002 4088 4287 4459 4398 4335 3922 3945 3860 3736 3675 3578 3508 3241 3308 3360 3296 3271 3388 3322 2583 2038 2033 2529 3162 3475 3710 3652 3285 3570 3735 3668 3684 3618 3576 3213 2665 3191 3635 3246 2564 3024 2900 1985 1834 2175 2251 1938 3405 3931 4786 3858 3806 3692 3608 3347 3124 2681 2751 4339 4365
454 639 850 1306 1137 1456 2249 3232 3312 3092 2767 2481 2815 2698 2807 2719 2857 2851 2735 2862 3146 3389 3612 4031 4059 4237 4449 4686 4585 4475 4281 4148 4129 4098 4162 3904 3636 3559 3618 3531 3150 3330 3721 3229 2783 2590 2722 2194 2696 3210 3485 3539 3420 3098 3384 3498 3553 3513 3584 3680 2797 2678 3138 3328 3189 2587 2797 2676 1942 1508 1678 1950 2170 2732 3180 4743 3722 3518 3426 3141 2842 2417 2088 1832 1707
567 676 1288 1552 1657 1137 1945 2695 2876 2837 2385 2303 2380 2492 2928 2834 3074 2916 2874 2875 3196 3369 3644 3970 4130 4386 4650 4852 4806 4825 4576 4312 4400 4510 4477 4295 4029 3878 3655 3497 3274 3561 3640 3676 3602 2963 2959 2709 2344 3043 3001 3314 3415 2849 3059 3326 3411 3396 3370 3484 2788 2550 2442 3064 3260 3026 2500 2842 3014 2302 1511 1312 1569 2975 4076 3677 4689 4560 3490 3113 2784 2598 2442 2258 2126
770 1396 776 1471 2890 3372 3335 2095 3030 3029 2421 2170 2308 2277 2854 2805 2876 3043 3019 3385 3522 3638 3847 3887 4243 4458 4618 4913 5037 4939 4711 4659 4750 4746 4775 4536 4254 4143 4014 3838 3777 3930 4034 3986 3477 3416 3308 3562 3015 2994 3598 3092 3429 2976 2890 3072 3181 3179 3153 3293 3222 2518 2559 2444 2860 3186 3024 2870 3241 3387 2973 2354 2103 2784 3742 3999 4453 4826 5228 4418 4068 3773 3585 3390 2990
1616 1906 2280 2913 3196 3248 3580 3368 2688 2450 2879 2387 1991 2209 2703 2836 2997 3078 3150 3954 3459 3666 3902 4021 4174 4508 4763 4896 4936 5116 5017 4978 5021 4938 4951 4815 4606 4512 4343 4185 3963 3936 4145 4276 3962 3792 3755 3732 3312 2978 3189 2909 2800 3173 3050 2981 2962 2969 2905 2758 3167 2559 2475 2678 2826 3128 3683 3480 3534 3670 3733 3490 3491 3447 3265 3829 4509 4752 4776 4874 5063 4634 4282 4251 4214
1702 1864 2159 2636 2934 3347 3309 3842 3540 1772 1970 2655 2269 2087 2264 2861 2945 3155 3196 3342 3810 4015 3914 4208 4329 4502 4688 4816 4782 4792 5006 5032 5086 5066 5044 4892 4776 4681 4599 4336 3984 3642 3933 4187 4325 3966 4024 3987 3862 3469 3036 3152 2678 2857 3090 3097 2998 2818 2733 2532 2847 2751 2765 2755 2918 3113 3390 3958 4062 4112 4362 4184 4091 4363 4229 3789 3963 4727 4790 4802 4773 4703 4515 4424 4476
1651 1740 1897 2304 2741 3009 3336 3352 3268 2664 1244 2538 2392 1902 2208 2793 3027 3163 3489 3419 3608 3977 4035 4247 4307 4514 4637 4834 4737 4674 5056 4998 5096 5038 5003 4928 4884 4853 4662 4558 4176 3730 3673 3975 4283 3950 4107 4136 4035 3968 3498 3174 3077 2476 2698 2964 2962 2884 2662 2732 2970 3083 3199 3119 3163 3246 3379 3603 3933 4288 4465 4465 4559 4637 4484 4080 3780 3668 4425 4222 4191 4292 4365 4117 3850
1678 1874 2005 2222 2243 2920 3188 2862 2409 2200 1572 2419 2478 2210 2599 3223 3212 3470 3433 3304 3370 3677 4041 4364 4271 4508 4681 4814 4888 4904 5014 4975 5048 5069 5004 4891 4879 4840 4675 4695 4452 3901 3218 3450 3860 4029 3990 4051 3937 4098 3828 3736 3280 4430 2575 2633 2802 2749 2652 3084 3258 3314 3382 3424 3411 3474 3571 3787 3922 4173 4556 4566 4646 4747 4330 4177 4007 3860 4359 4195 3998 3798 3938 4061 4155
1629 1862 1926 2026 2507 2792 2852 3054 2413 1620 1443 2238 2986 2439 2312 3087 3352 3394 3460 3283 3366 3787 4225 4455 4364 4503 4712 4761 4833 4872 4990 4972 5066 5023 4837 4872 4926 4907 4675 4689 4318 3976 3464 3172 3307 3591 3758 3881 3932 3956 3993 3711 3523 4442 2883 2657 2515 2555 2538 3426 3422 3439 3465 3458 3490 3682 3807 3762 3897 4219 4488 4489 4572 4766 4422 4244 4066 4022 4362 4348 4174 4043 3959 4066 4077
1589 1817 2006 2219 2416 2674 2886 2692 2186 1805 1420 2321 2731 2587 2572 2955 3221 3444 3399 3384 3573 3982 4389 4539 4407 4459 4608 4738 4712 4987 5066 4917 5056 4926 4934 4968 4733 4619 4642 4516 4206 3991 3596 3199 2970 3096 3379 3461 3480 3629 3645 3772 3888 3528 3082 2999 2824 2611 2467 3388 3647 3513 3484 3596 3810 3844 4090 3950 3944 4111 4511 3723 3807 4059 4183 4129 4069 3950 4267 4376 4263 4238 4180 4226 4379
1413 1718 1879 2166 2431 2374 2967 2763 2228 2139 1575 1883 2690 2649 2808 3333 3486 3639 3589 3478 3746 4180 4411 4604 4518 4377 4527 4700 4646 4831 4849 4748 4891 4786 4628 4524 4511 4543 4430 4442 4321 3881 3776 3590 2988 2964 2667 3248 3200 3278 3246 3435 3616 4181 3393 3168 3104 2914 2646 2581 3579 3655 3638 3837 3912 3825 3868 3902 4092 4025 4141 4018 3675 3552 3636 3714 3738 3730 3561 4019 4180 4184 4313 6450 4584
1237 1671 2055 2253 2192 2453 2866 2602 2168 1942 2014 2417 2706 3297 3618 3746 3607 3649 3740 3544 3911 4196 4405 4717 4591 4346 4432 4518 4530 4854 4825 4690 4814 4851 4856 4656 4618 4397 4249 4298 4086 4083 3991 3920 3792 3497 3032 3065 3224 3215 3433 3178 3215 3593 3561 3492 3278 3131 2902 2646 3196 3577 3680 3845 4105 4164 4027 3868 3952 4333 4503 4474 4020 3783 3361 3260 3264 3270 3326 3294 4259 3584 3488 3456 3845
1228 1645 2114 2426 2326 2330 2664 2476 2063 1946 2324 2353 2440 3321 3351 3762 3690 4006 3824 3698 3935 4324 4492 4672 4711 4323 4671 4684 4524 4507 4551 4335 4528 4814 4822 4605 4624 4512 4337 4407 4376 4269 4212 4077 4250 4039 3672 3508 3400 3461 3510 4124 4723 4809 4498 3522 3297 3216 3114 2938 2744 3055 3235 4036 3932 4142 4184 4123 4392 4084 4292 4720 3833 3739 3545 3379 3219 3065 2954 2952 2950 2979 2984 2873 2794
1396 1420 2120 2471 2967 2868 2525 2283 1820 2038 2206 2404 2916 3506 3607 3774 4034 4111 3834 3849 4192 4388 4525 4689 4588 4524 4311 4249 4287 4538 4633 4288 4591 4857 4975 4801 4672 4560 4407 4449 4566 4308 4166 4208 4329 4300 4077 3749 3748 3802 4079 4356 4817 4665 3916 3440 3426 3294 3210 3077 2923 2721 2934 3395 3674 4036 3947 3724 4132 4065 4272 4158 3730 3538 3438 3328 3275 3143 3034 2886 2724 2580 2470 2380 2304
1549 1556 2042 2551 2692 2723 2765 2414 2290 2553 2763 3140 2907 3404 3486 4069 4142 4266 4146 3985 4284 4514 4675 4750 4474 4280 4465 4426 4422 4586 4510 4215 4551 4818 4919 4813 4737 4459 4434 4404 4467 4229 4137 4183 4442 4451 4404 4208 4089 4059 4169 4088 4063 4185 4598 3736 3564 3452 3361 3259 3136 2994 2835 2820 3131 3564 3887 2800 3578 3519 3897 3633 3318 3052 3263 3286 3243 3131 2960 2796 2616 2460 2346 2277 2420
1702 1693 1831 2376 2863 2820 2980 3382 2608 2759 3059 3694 3302 3203 3772 3984 4291 4269 3989 4061 4352 4610 4576 4767 4507 4244 4205 4180 4273 4372 4447 4209 4389 4668 4761 4791 4673 4369 4431 4507 4510 4310 4350 4277 4394 4045 3956 3986 4080 4160 4088 3999 4106 4192 4431 4135 3570 3570 3549 3530 3472 3309 3075 2851 2820 4582 3058 3159 3157 2942 3393 3454 3372 3252 3202 3160 3180 3088 2861 2589 2436 2343 2446 2549 2858
1858 1831 1942 2193 2703 2840 3153 3361 3322 2865 2671 2399 2976 3198 3953 4264 4325 4048 3775 4311 4530 4815 4759 4710 4556 4203 4327 4222 4292 4237 4390 4212 4408 4455 4586 4688 4733 4539 4346 4557 4384 4173 4223 4241 4000 3902 3886 3720 4234 4276 4338 4274 4234 4532 4537 4266 3912 3764 3675 3740 3712 3665 3441 3081 3014 3006 2945 2948 3026 2986 2921 2978 3254 3240 3140 3128 3122 3088 2903 2549 2442 2498 2662 2834 3351
1797 1748 1893 2138 2398 2604 3044 3310 3603 3883 3769 3200 3153 3682 3901 4133 4142 3808 3644 4584 4823 4918 4757 4827 4616 4260 4305 4234 4392 4362 4402 4336 4323 4359 4400 4406 4266 4415 4300 4477 4383 4019 4164 4207 3922 3811 4109 4081 4168 4148 4414 4472 4404 4564 4418 4951 4178 3983 3924 3872 3949 3904 3680 3300 3224 3206 3169 3114 3035 2923 2851 2833 2870 2912 2923 2913 2957 2929 2670 2465 2444 2588 2737 3020 2914
1736 1849 1719 1750 2072 2214 2442 2884 3321 3535 3952 4622 3876 3626 3939 4081 4060 3843 4580 4940 4974 5228 5078 5042 4715 4638 4530 4452 4526 4235 4464 4471 4508 4327 4426 7254 6225 4458 4501 4464 4542 4412 4445 4230 4231 4221 4152 3963 4298 4318 4332 4419 4623 4551 4608 4086 4826 4081 4041 3943 4026 4024 3943 3596 3518 3454 3410 3328 3257 3146 3013 2774 2755 2793 2744 2700 2707 2830 2622 2454 2481 2543 2634 2722 2937
1680 1822 1876 1790 1900 1983 2132 2455 2779 3075 3608 3746 4226 4219 4178 3887 4005 4094 4581 4739 5236 5196 5019 5080 5017 4804 4882 4505 4469 4383 4408 4658 4612 4295 3755 4299 4322 4156 4052 5368 4374 4240 4540 4265 4734 4542 4261 4890 4482 3953 4402 4376 4579 5799 4340 4230 4052 4084 4081 4136 4201 4183 4051 3744 3701 3719 3662 3597 3518 3415 3223 3082 2920 2795 2712 2629 2586 2589 2562 2522 2532 2611 2697 2989 3099
1390 1691 2007 1885 1866 1998 2057 2164 2326 2504 2946 3342 3614 3778 4248 4212 4201 4361 4548 4882 4985 4801 4695 4898 4816 4883 4981 4786 4770 4716 4492 4887 4962 4782 4395 4052 4271 4161 3958 4118 4176 4255 4148 4114 4069 4271 4153 3990 5972 4486 3954 3916 4004 4016 4008 4259 4168 4128 4146 4109 4070 4126 4060 3877 3806 3771 3750 3711 3660 3570 3485 3413 3339 3268 3217 3185 3136 3054 2984 2908 2893 2843 2744 2989 3028
Wind_Speed
10 14 13 11 10 9 7 8 7 5 8 7 7 6 5 7 6 5 5 3 4 3 4 4 3 3 4 3 4 4 7 7 9 9 nan nan 5 5 4 6 6 6 7 8 7 9 9 9 10 12 6 9 6 11 11 11 12 11 11 12 12 12 12 11 12 12 12 11 14 11 11 13 12 16 15 14 15 14 14 14 14 14 14 14 14
9 11 12 11 9 10 8 9 7 6 7 7 6 6 6 5 5 6 6 5 4 4 5 5 5 4 3 4 nan nan nan nan 8 nan nan nan 5 6 5 7 5 7 8 8 8 6 10 9 9 9 10 7 7 7 9 12 11 6 8 11 12 9 12 11 8 10 14 11 11 11 10 10 14 13 13 13 13 11 12 12 13 14 12 12 12
8 11 12 10 10 9 7 8 7 6 7 7 7 7 6 7 7 6 7 6 6 5 6 5 4 3 2 4 nan nan nan nan nan nan nan nan 4 5 7 6 6 6 8 8 9 9 9 9 9 9 11 7 10 7 6 9 10 7 5 9 8 12 9 8 10 14 10 9 10 12 9 10 10 11 12 10 12 10 11 10 12 10 9 9 13
7 9 12 11 8 8 8 8 8 8 8 8 7 6 8 9 8 7 8 7 8 7 6 5 3 1 2 4 nan nan nan nan nan nan 7 nan 5 4 6 6 6 7 7 8 9 9 10 9 10 9 9 9 8 9 6 8 6 7 5 8 5 10 8 6 5 7 12 8 9 12 8 8 7 8 9 9 8 7 8 10 8 11 7 10 13
5 9 10 10 8 8 8 10 10 8 7 7 7 7 11 7 9 8 10 9 9 8 6 5 4 2 2 4 5 nan nan 5 6 7 6 7 8 4 5 5 5 8 6 8 9 8 9 10 10 10 9 8 9 9 6 8 5 6 8 6 4 7 6 5 5 4 7 11 10 11 7 9 9 7 3 10 10 7 6 6 5 11 6 10 13
5 8 10 10 9 9 9 9 9 8 8 8 8 8 10 11 10 10 12 11 9 7 5 5 4 3 3 3 4 5 7 7 6 7 6 5 8 6 3 4 5 6 7 7 8 8 8 10 9 10 9 8 9 8 7 9 9 5 5 4 6 6 7 7 4 6 5 7 9 9 11 10 8 9 10 5 9 9 4 nan nan 7 4 10 9
5 6 10 13 14 12 11 9 8 8 9 11 10 10 10 12 11 11 13 11 10 8 5 5 4 4 3 3 5 5 7 8 8 8 8 6 7 7 4 4 4 6 6 6 7 7 8 8 8 9 9 8 7 9 8 9 6 7 6 5 6 7 5 6 6 4 6 7 7 8 6 10 7 8 5 4 3 4 10 6 4 8 10 10 11
8 5 12 16 17 15 13 10 9 10 12 11 11 11 10 12 12 13 14 12 10 8 5 5 5 6 5 5 7 6 6 7 6 8 9 9 6 6 5 4 3 6 6 5 6 6 7 7 8 8 9 8 7 8 9 9 8 6 7 7 6 5 6 6 6 4 4 6 7 7 3 5 6 5 5 6 5 3 4 7 8 4 7 7 9
8 1 11 17 20 17 14 12 10 12 13 11 12 13 13 13 14 14 14 13 10 6 6 5 7 8 7 7 8 8 7 7 7 7 8 8 7 6 6 5 5 4 5 5 5 6 5 7 7 7 7 8 8 7 7 6 6 5 6 6 5 4 4 4 4 5 6 3 4 6 7 5 3 4 5 2 3 4 5 4 1 2 5 5 2
11 2 10 16 19 19 17 15 13 12 12 13 14 14 14 15 14 14 13 13 11 7 7 6 7 9 8 7 6 7 6 7 7 6 7 7 7 6 6 6 5 5 4 5 4 4 4 5 5 5 6 6 6 7 6 6 5 5 4 5 5 4 3 2 1 1 4 5 2 3 4 5 5 5 3 1 4 5 3 3 1 2 5 4 6
8 2 8 13 17 19 19 17 15 13 13 14 14 14 14 13 14 13 13 14 11 8 7 7 8 9 9 7 5 3 3 5 6 6 6 6 6 5 5 5 6 5 4 4 3 3 3 3 4 4 5 5 5 6 6 4 2 2 2 2 3 3 3 2 2 1 1 2 2 2 1 1 2 3 5 6 2 1 2 2 3 2 nan 2 4
8 1 4 12 16 17 17 17 15 14 13 14 13 14 14 14 14 13 13 13 11 9 8 9 9 9 8 7 4 3 2 5 5 5 5 5 4 4 5 5 4 5 5 4 2 2 2 2 4 4 4 4 3 4 4 4 4 2 1 1 1 2 2 2 2 0 1 2 1 3 1 1 3 1 2 5 1 2 2 3 2 2 1 1 3
12 8 6 13 16 16 16 16 15 13 12 13 14 14 14 14 14 13 12 12 12 10 9 9 10 9 9 8 5 4 4 5 6 6 5 5 5 4 4 4 4 4 4 4 2 3 2 3 2 3 3 3 4 3 4 5 6 5 2 0 1 1 1 1 0 1 2 1 1 1 1 1 3 4 3 2 2 3 2 3 4 3 2 3 3
11 14 11 11 15 15 14 15 14 12 11 13 13 13 15 15 15 13 12 13 13 12 12 11 10 11 10 9 6 5 5 6 7 6 5 6 5 5 4 3 4 2 2 3 5 4 5 4 4 5 4 4 3 3 3 3 3 4 2 3 4 3 2 2 1 1 0 0 2 3 2 2 1 3 4 2 2 3 3 2 3 1 3 1 2
15 14 11 12 16 16 14 14 14 13 12 13 13 13 15 15 15 15 13 12 13 13 14 12 13 12 11 9 6 6 6 6 7 8 7 6 5 5 5 4 3 3 4 4 5 6 7 7 8 9 8 8 7 7 6 6 5 6 7 7 8 6 6 5 4 4 2 2 1 0 3 4 3 5 3 1 3 3 2 2 1 1 1 1 3
20 15 8 13 17 16 14 13 13 13 13 12 14 14 14 15 15 15 14 14 14 15 16 15 15 15 12 9 6 6 8 7 8 8 9 8 7 7 6 5 5 5 6 6 6 7 7 8 8 10 10 10 9 9 9 8 8 9 9 9 11 10 9 9 7 6 5 3 3 1 1 3 3 1 2 1 2 2 4 3 2 2 2 2 1
19 16 13 17 18 16 15 13 12 13 13 13 14 14 15 16 17 16 16 16 15 15 18 18 17 16 13 10 8 7 7 6 7 6 6 9 9 9 8 5 5 7 7 7 6 6 6 6 7 7 7 8 8 7 8 8 8 8 8 9 10 10 10 11 11 10 8 6 4 4 2 1 2 2 2 1 2 3 2 3 2 1 1 2 3
22 17 18 18 17 17 16 14 12 12 14 13 14 14 15 16 18 18 18 17 16 16 18 20 19 17 14 10 8 8 9 8 8 8 9 10 10 10 9 7 6 8 9 8 8 5 5 4 3 4 5 5 6 6 6 6 6 6 7 8 8 8 8 9 11 12 11 9 6 3 3 1 2 2 3 2 4 6 4 4 3 2 3 4 3
23 20 24 20 16 17 16 15 13 13 12 13 14 14 14 15 17 19 18 18 18 20 21 22 21 20 17 12 10 10 11 11 11 11 11 10 9 10 8 8 8 9 10 12 8 6 5 3 2 1 2 4 5 5 6 6 6 6 7 7 7 8 8 9 10 11 11 11 9 7 3 1 1 2 1 1 5 6 4 2 2 2 4 5 5
26 27 26 19 11 15 16 15 14 14 14 13 15 15 16 16 17 18 20 21 21 21 23 22 21 20 18 15 13 14 14 13 13 12 11 10 10 11 9 8 9 10 11 10 10 7 5 3 2 0 2 4 5 6 7 7 7 6 6 6 8 9 9 9 9 10 10 11 11 10 7 3 0 1 1 1 1 3 2 2 2 3 5 5 5
29 26 24 18 13 13 15 16 15 15 15 14 14 15 16 16 17 18 21 21 21 21 22 23 24 22 20 16 14 15 14 15 13 12 12 12 13 12 11 10 11 12 12 10 10 9 7 6 3 3 2 4 5 6 7 7 8 7 6 6 6 10 10 9 9 9 10 11 11 11 10 7 4 2 0 1 1 1 2 2 3 4 6 6 6
28 28 24 25 18 14 16 18 19 18 18 17 16 17 18 18 18 19 19 20 22 22 22 24 25 24 22 19 17 17 17 18 15 14 13 14 14 13 12 11 11 12 13 12 10 10 9 8 6 5 5 5 7 7 8 8 8 8 7 6 6 8 10 9 9 10 10 9 9 10 10 9 7 5 3 2 2 3 2 3 4 5 6 5 5
nan 25 25 25 21 16 19 22 21 19 18 18 18 18 19 20 20 20 20 20 21 22 23 25 25 26 24 23 21 20 20 18 16 16 14 14 15 13 13 12 12 14 14 14 13 11 12 10 8 8 8 7 8 8 7 8 8 8 7 6 7 9 10 10 10 10 9 9 9 9 10 9 7 6 5 3 4 4 5 5 5 5 5 4 5
nan nan nan 27 22 21 26 26 23 22 21 20 20 19 19 20 21 21 21 22 22 23 25 25 25 25 26 26 24 22 20 19 18 17 15 15 16 16 15 13 13 15 16 16 15 13 14 13 10 10 9 8 10 9 8 8 9 9 7 6 6 9 10 10 9 9 9 8 8 8 8 8 8 6 5 3 2 3 3 4 6 6 5 5 5
nan 26 nan 27 29 30 30 28 26 25 23 21 20 20 20 21 21 22 21 22 22 23 25 26 25 26 26 26 25 23 21 20 19 18 17 16 17 17 17 15 15 15 16 18 17 16 16 15 12 11 11 10 10 10 9 8 9 9 8 8 7 8 10 10 10 9 8 7 7 7 7 7 6 5 5 4 3 3 2 3 3 3 2 2 3
nan 31 29 29 38 34 31 30 28 26 26 24 21 21 21 21 20 21 22 23 22 23 24 26 27 27 27 26 25 24 22 20 19 19 19 19 18 18 19 19 17 16 16 18 18 17 17 16 15 13 12 11 11 11 10 9 9 10 9 8 8 8 9 11 11 10 9 8 7 7 6 6 6 6 5 4 3 2 1 2 3 3 2 1 3
nan nan nan 38 42 37 31 32 30 27 28 27 23 22 22 22 21 22 23 23 22 22 23 25 27 27 27 26 26 24 23 22 22 21 22 21 20 19 20 20 20 18 17 18 19 18 18 18 16 15 13 13 12 11 12 11 9 9 10 9 8 10 10 11 11 11 11 10 9 7 6 6 6 5 4 4 3 2 1 3 3 4 2 1 2
42 39 42 44 44 40 34 33 32 30 30 30 26 23 22 23 24 23 24 23 22 22 23 25 26 27 27 27 26 26 24 25 24 25 24 23 22 21 22 23 23 20 19 18 19 19 19 19 18 16 15 15 14 13 13 12 11 10 11 11 9 10 11 11 12 12 11 10 10 9 7 6 6 6 5 3 2 2 2 2 4 5 4 2 1
nan 38 39 40 40 39 35 33 33 31 32 31 27 24 23 24 24 24 24 23 23 22 23 24 25 26 27 28 28 28 27 27 26 26 24 24 23 23 24 25 25 23 22 20 19 20 20 19 19 17 16 16 15 14 14 14 13 12 11 12 12 11 11 12 12 11 11 9 8 7 7 6 5 8 8 5 2 4 4 4 5 6 5 3 2
nan 41 43 43 41 39 37 35 34 32 32 31 28 24 22 23 23 24 25 25 24 21 21 23 24 24 26 28 29 29 28 28 27 27 26 26 25 25 24 24 26 24 24 24 22 21 20 21 20 19 17 17 16 16 16 17 16 14 13 12 13 13 12 12 12 11 10 10 9 6 5 6 5 8 12 11 7 4 6 5 7 7 5 4 3
60 59 55 51 46 42 40 38 36 33 31 31 29 23 22 22 23 23 25 26 25 22 20 20 22 24 26 27 28 29 28 28 28 28 28 27 26 27 26 26 26 26 26 26 25 22 20 22 21 20 19 17 17 17 22 21 18 15 14 14 14 15 14 13 13 12 10 9 8 8 5 3 4 7 10 12 11 9 7 4 3 6 9 9 6
57 56 59 58 51 44 41 37 34 31 29 30 29 24 23 22 22 21 23 27 27 23 20 19 21 23 25 26 27 28 28 29 29 28 29 28 28 27 27 26 26 26 27 26 26 24 24 23 23 21 20 18 18 21 27 24 21 17 14 14 15 15 15 15 13 13 12 10 8 8 7 6 5 5 5 10 10 9 8 6 5 2 2 4 3
55 52 53 54 51 47 42 37 35 32 29 26 26 25 24 22 22 21 24 27 27 24 21 20 20 22 23 25 27 28 28 28 28 29 29 29 28 27 27 26 25 27 27 26 27 26 26 25 24 23 21 20 17 26 27 26 23 19 16 12 14 15 15 15 15 13 13 12 10 9 7 6 5 9 9 6 8 9 8 8 7 4 1 1 2
53 54 53 55 57 53 53 44 36 33 28 27 28 26 25 25 25 25 23 26 28 26 23 21 21 22 23 25 27 27 27 27 28 29 29 28 27 26 27 28 28 29 28 26 26 26 27 27 25 25 24 22 19 29 28 27 24 21 18 14 12 14 14 14 15 14 14 13 12 11 10 8 7 7 8 7 7 6 8 8 8 8 7 3 2
53 52 55 58 56 53 49 48 44 34 31 30 30 27 28 28 28 24 23 26 28 27 25 23 23 23 23 25 25 26 26 27 28 29 29 28 27 27 27 28 28 28 28 27 26 26 27 27 26 24 24 23 21 33 29 28 25 22 19 16 12 12 12 13 14 14 14 13 13 12 11 10 9 8 7 7 7 7 5 6 9 9 8 7 7
57 56 54 53 54 54 52 48 45 40 33 33 31 28 28 29 29 27 25 26 29 29 27 25 25 25 25 26 27 25 26 26 27 27 28 27 26 26 26 27 27 27 27 27 27 25 26 26 26 24 23 23 24 33 29 29 27 23 23 18 14 12 11 12 14 14 14 14 14 13 13 11 10 9 8 8 8 9 6 5 6 7 9 9 8
58 58 56 55 53 51 49 46 42 40 37 35 33 32 30 30 30 29 28 27 29 29 28 27 27 27 26 27 28 25 25 26 27 26 26 27 26 25 25 26 26 26 25 25 24 24 25 25 25 24 21 23 21 29 29 29 29 27 26 19 16 15 13 13 14 15 15 15 15 14 13 13 12 10 9 10 11 12 8 5 7 8 10 10 10
59 59 57 56 55 55 53 48 42 38 38 39 36 36 35 33 32 33 32 30 28 28 29 29 29 28 28 29 29 26 25 27 26 25 25 26 25 25 24 25 25 24 22 22 22 23 23 22 23 22 21 21 20 28 29 29 30 30 26 20 18 17 15 15 15 15 16 16 15 16 15 13 12 11 11 11 13 15 10 7 7 7 8 9 10
58 58 58 57 59 58 54 50 43 38 37 39 41 39 36 35 33 33 35 32 29 29 30 30 30 29 28 30 29 26 25 26 26 24 24 25 25 24 24 24 23 23 21 21 21 21 20 20 20 20 22 20 19 27 30 30 30 30 25 20 19 17 16 17 17 17 17 17 16 17 17 14 13 12 11 12 14 14 9 9 8 8 8 9 12
57 57 59 60 58 54 49 44 41 40 38 38 40 40 38 38 34 33 35 34 31 29 30 32 32 29 28 30 29 25 24 25 25 24 23 24 24 24 24 24 23 23 22 19 19 19 17 18 19 18 21 19 18 23 28 30 30 29 26 21 19 17 17 18 18 19 19 18 18 17 18 18 15 12 10 12 13 13 9 8 10 9 11 12 15
54 56 59 56 53 51 47 44 44 42 38 38 40 41 40 40 35 32 33 33 32 32 33 34 32 29 29 30 28 25 24 24 24 23 23 23 24 24 24 24 22 22 21 20 17 17 16 17 17 18 18 17 18 19 26 28 28 28 25 22 18 17 18 19 20 20 19 19 20 19 15 21 21 17 13 12 13 11 9 8 8 11 15 27 28
50 52 53 52 51 49 45 43 43 41 38 37 40 44 44 42 37 31 31 35 37 35 35 35 31 27 29 30 28 26 25 24 23 23 23 23 24 23 23 23 22 22 20 19 19 18 17 17 17 17 16 15 18 17 25 23 27 26 25 21 18 17 19 20 20 20 20 18 18 20 17 21 25 21 17 13 11 11 10 10 8 11 19 30 24
50 50 49 50 48 46 43 42 42 41 40 38 39 43 44 42 35 33 37 40 40 36 35 34 30 27 29 29 27 27 26 23 21 22 22 23 25 24 23 22 21 21 19 18 18 17 16 16 16 17 15 15 18 18 26 23 22 24 24 22 18 17 21 19 19 18 18 17 17 16 17 24 26 24 20 16 13 10 11 10 8 14 19 24 24
49 47 46 47 45 40 40 41 40 42 41 41 41 43 44 40 35 39 42 43 42 38 36 34 30 28 29 29 27 27 25 22 22 21 22 24 24 23 23 22 21 19 18 17 17 16 15 14 14 15 15 15 15 15 22 25 22 22 23 23 20 15 18 18 17 15 16 16 14 14 17 28 26 25 22 19 16 15 13 10 12 13 16 21 21
45 45 46 44 40 34 36 36 37 39 40 40 38 39 40 38 41 44 44 43 42 40 38 34 30 29 30 29 27 26 25 22 22 22 22 23 23 23 22 21 20 19 17 17 16 16 15 14 14 12 12 11 10 11 14 22 25 22 22 21 20 18 13 12 13 12 9 16 23 27 27 28 28 27 25 23 21 19 15 13 16 22 22 21 22
48 47 47 46 43 36 39 40 36 34 36 38 36 36 36 40 43 44 43 45 44 42 39 35 31 30 30 29 29 28 26 22 22 21 21 22 22 22 21 20 19 18 17 16 15 14 14 13 11 11 11 11 11 13 13 21 20 21 20 20 20 19 15 13 11 19 24 22 22 27 28 29 28 27 28 26 24 25 23 22 21 24 24 24 25
50 47 45 45 48 42 39 37 39 37 33 33 32 33 36 40 42 42 43 46 45 43 40 36 32 31 30 29 29 28 26 23 22 21 21 21 21 21 20 19 18 17 16 15 14 13 13 13 13 13 14 14 14 15 14 17 22 21 20 18 17 15 15 15 12 16 19 20 20 18 20 21 23 24 23 27 27 30 27 26 24 26 26 27 28
46 47 47 47 48 49 46 44 40 41 42 37 35 35 37 38 38 39 42 46 46 43 40 36 33 31 30 29 29 30 27 24 23 21 20 20 19 19 18 17 17 17 16 16 14 15 15 15 15 15 16 16 16 15 16 18 23 23 21 23 21 20 21 19 17 17 18 19 24 26 25 24 23 23 23 22 22 22 23 23 22 24 26 28 36
50 49 49 47 48 51 51 48 46 43 45 44 39 38 38 36 37 37 43 44 43 42 39 36 33 31 30 30 30 29 25 25 25 22 24 26 20 17 18 19 18 20 19 16 16 18 18 17 18 18 17 16 17 15 16 18 24 26 25 26 25 24 24 25 23 23 23 21 26 26 25 25 24 24 22 21 22 23 23 22 23 25 26 30 33
51 48 50 52 53 53 51 50 47 44 42 43 46 44 41 37 36 36 39 40 42 39 36 34 33 31 31 30 30 29 27 26 27 25 32 30 36 41 39 30 30 37 41 41 37 26 26 23 20 25 29 20 18 23 33 33 37 35 30 33 32 31 28 27 30 31 28 26 27 27 25 26 26 26 26 26 27 28 28 29 29 30 32 34 36
54 56 56 56 56 54 52 52 46 42 42 44 46 47 46 43 38 36 38 39 39 37 35 35 34 32 32 32 32 32 31 27 27 29 33 32 32 39 46 46 42 40 42 43 43 40 41 41 34 32 34 43 42 41 42 42 42 40 38 38 37 34 32 33 38 36 31 29 29 29 29 30 31 30 31 31 32 33 33 35 36 38 38 38 39
Wind_Direction
338 339 332 318 303 283 257 246 244 250 229 234 238 228 194 199 190 173 182 160 205 185 179 170 176 170 157 127 125 122 126 131 124 124 nan nan 134 109 95 100 93 92 93 94 90 102 102 90 93 120 132 106 144 120 114 116 121 110 124 117 105 101 97 95 114 119 107 103 102 109 109 113 109 110 115 111 109 109 106 98 96 90 89 83 82
331 336 338 323 303 304 271 249 254 265 239 240 233 229 212 205 196 186 184 175 199 196 202 191 191 178 165 122 nan nan nan nan 120 nan nan nan 141 127 115 109 99 96 99 99 99 87 94 104 109 107 115 102 99 105 137 144 121 140 112 107 110 110 104 113 110 101 97 105 111 114 118 119 125 114 111 108 101 96 93 99 99 93 83 75 70
331 334 340 322 316 304 267 256 251 259 254 243 229 221 219 205 200 195 188 191 204 210 216 212 207 186 139 118 nan nan nan nan nan nan nan nan 122 111 113 115 110 105 103 103 110 110 111 108 104 109 103 125 116 131 107 116 124 125 91 109 133 107 103 97 96 114 119 128 125 114 117 118 122 121 114 114 109 112 98 97 104 90 99 92 80
324 337 338 325 311 287 268 251 247 250 243 245 244 231 209 201 207 201 199 202 208 221 225 242 246 231 128 123 nan nan nan nan nan nan 128 nan 124 110 111 112 105 109 103 108 114 117 113 111 112 110 106 110 112 113 107 95 117 127 144 121 140 123 106 101 106 123 121 109 99 115 122 117 106 102 104 101 86 85 98 93 91 85 72 80 72
310 335 339 325 315 296 271 249 241 242 241 238 243 233 205 214 212 214 208 206 214 230 240 246 253 258 185 135 125 nan nan 173 156 149 144 135 126 124 111 104 105 112 115 112 118 119 118 118 117 117 115 111 111 106 110 90 111 128 132 137 133 95 126 124 114 111 125 130 132 108 113 107 158 128 157 133 114 89 77 72 77 85 63 68 78
301 337 346 337 322 289 271 258 246 235 236 224 224 231 220 213 214 216 212 211 217 242 248 241 240 240 231 183 163 157 160 181 162 150 146 135 119 123 117 107 106 110 120 125 120 129 127 122 120 122 119 117 118 117 117 121 137 111 116 169 122 143 149 139 139 147 149 132 130 131 138 152 145 146 137 149 122 126 71 nan nan 101 61 61 56
278 358 1 348 337 319 302 279 256 245 235 225 217 223 225 222 219 221 216 215 222 235 257 227 237 216 232 206 188 184 178 173 167 151 144 144 137 134 155 137 128 122 124 127 131 135 136 133 132 131 126 127 124 128 125 122 121 131 145 146 166 176 152 152 146 168 151 119 111 142 147 150 161 130 174 129 131 140 128 51 49 60 43 42 35
296 20 3 352 343 331 316 296 264 247 241 230 219 219 228 227 228 227 217 220 222 232 241 225 222 223 222 203 194 188 175 170 158 151 148 153 153 142 159 167 163 143 146 141 136 141 143 143 146 143 143 141 143 136 132 131 156 160 149 161 162 165 155 147 146 191 137 135 171 144 158 179 167 147 170 173 140 134 83 103 24 51 55 29 28
274 9 2 349 340 332 312 294 273 258 249 238 225 219 222 226 228 229 223 222 224 241 239 223 215 222 220 207 201 190 172 157 157 151 151 155 160 166 165 182 200 175 158 155 146 146 152 151 152 152 155 155 154 146 137 147 150 157 146 147 148 155 153 167 153 162 142 187 181 153 168 158 151 174 249 154 156 171 132 275 99 25 40 353 339
250 38 23 341 329 327 317 297 282 266 256 245 236 223 223 224 229 235 231 223 223 237 235 239 229 224 220 215 211 200 175 157 155 163 161 171 167 178 179 185 196 203 183 163 171 149 150 152 151 152 156 157 166 156 164 174 170 159 142 139 138 138 170 143 154 176 157 193 232 194 186 177 184 193 210 195 210 169 174 161 210 52 350 354 25
251 106 11 330 319 320 314 310 302 282 262 261 251 239 233 229 233 239 235 225 228 232 239 246 235 233 225 227 226 201 165 152 160 175 182 184 183 184 192 193 183 197 188 181 157 153 144 151 144 156 157 175 180 170 173 170 169 159 146 133 132 124 143 142 136 209 215 178 221 213 212 252 253 223 215 204 215 279 134 110 54 241 nan 349 318
245 264 321 306 302 314 318 315 305 297 282 277 265 257 248 238 237 242 238 232 228 227 237 241 239 242 236 240 236 199 166 161 163 178 196 195 197 193 199 206 193 179 174 174 151 105 126 145 135 152 169 167 197 180 163 174 165 221 209 206 126 112 131 155 146 156 333 302 107 311 320 137 272 232 283 303 283 199 172 120 102 44 319 226 312
242 215 251 288 297 310 322 316 305 298 286 287 283 273 262 254 254 252 246 240 231 232 235 241 239 243 241 242 233 200 165 164 171 177 203 202 203 204 214 213 213 183 165 137 124 70 91 107 116 143 160 161 165 183 173 175 176 175 222 102 60 37 342 360 310 11 32 299 334 293 316 337 276 275 226 166 258 282 41 79 123 201 33 6 309
256 242 235 276 291 304 313 311 309 301 298 286 282 270 262 258 261 259 253 243 235 233 236 237 239 240 244 240 229 207 180 172 175 177 192 203 206 204 219 221 218 186 136 115 114 86 94 88 90 93 101 109 115 124 137 145 147 134 123 87 62 35 39 359 33 66 16 329 166 178 146 273 286 301 303 313 46 26 35 81 231 155 92 66 347
251 255 272 290 294 303 305 308 308 306 306 294 279 270 263 260 263 264 258 248 241 241 237 241 234 239 241 236 225 205 195 186 181 183 186 197 201 208 210 210 203 172 134 132 116 113 103 100 86 85 83 84 82 85 88 87 84 88 92 78 82 55 43 47 31 41 37 41 32 326 153 153 220 214 215 223 180 174 194 218 255 103 115 100 44
250 242 254 284 290 294 296 303 307 304 313 305 298 281 272 264 267 269 267 255 243 243 242 244 240 237 240 238 223 206 206 204 197 193 188 190 197 202 212 200 176 174 154 149 126 116 108 99 90 85 83 78 75 74 73 73 66 68 70 68 68 67 55 50 57 53 54 47 57 74 138 135 206 253 234 244 288 239 239 236 293 3 41 74 169
267 269 270 278 283 293 292 299 304 310 316 320 309 298 286 272 268 267 262 254 247 243 245 245 243 244 245 236 222 212 216 218 210 208 198 199 202 202 208 203 166 166 171 158 145 131 119 102 98 88 84 79 71 66 63 65 59 55 53 56 58 63 55 54 55 54 60 51 34 31 53 135 185 234 229 265 283 271 286 292 317 20 10 63 74
255 253 256 268 278 289 288 290 306 317 326 326 316 306 289 277 273 272 265 263 253 246 244 247 249 249 245 240 226 217 217 219 212 218 210 209 210 207 205 202 173 169 174 171 163 153 138 113 113 90 71 64 60 50 45 44 44 44 40 39 43 51 50 51 51 58 54 54 67 53 351 52 304 293 322 337 302 311 325 327 331 7 12 47 73
252 249 244 246 264 279 285 296 308 312 314 319 318 315 305 291 280 276 274 269 261 245 241 240 247 240 238 239 236 224 220 220 217 216 218 213 217 221 205 200 187 182 182 179 184 171 169 167 155 81 60 30 19 22 10 11 18 25 24 22 17 22 30 33 37 40 51 50 47 61 67 52 276 274 243 328 309 312 320 326 332 18 44 52 67
255 250 245 237 251 280 290 292 299 306 310 314 320 316 322 310 294 280 270 262 258 252 247 245 247 243 242 240 234 227 225 226 224 222 223 220 218 222 217 204 193 193 190 188 191 187 196 207 222 195 352 359 351 353 349 346 353 3 10 12 358 4 12 20 28 26 30 35 41 45 49 59 62 238 241 198 255 301 316 354 15 44 59 64 64
256 263 262 263 252 266 277 282 282 286 287 293 303 313 313 309 308 299 285 277 272 264 258 249 247 246 247 249 244 237 238 231 230 229 223 225 222 219 219 202 202 193 201 202 198 199 210 222 233 252 314 316 325 329 328 326 330 340 352 357 359 345 357 0 7 23 26 24 30 38 43 42 41 38 272 136 113 352 355 67 84 78 75 68 60
257 261 265 254 240 244 265 266 267 275 287 301 302 303 307 315 312 309 297 281 275 267 260 254 251 250 255 253 249 243 241 235 235 232 225 227 227 223 221 210 204 203 205 211 212 210 216 229 237 265 275 298 303 309 324 316 318 325 341 333 345 343 343 352 352 1 13 20 16 25 37 42 33 36 66 86 104 105 61 69 79 80 90 87 66
nan 256 258 254 243 247 260 266 270 281 286 294 295 299 306 311 308 307 307 297 281 271 263 256 254 253 257 254 250 246 245 248 245 235 233 231 232 230 225 220 210 213 212 213 222 219 226 233 234 248 265 280 288 302 305 304 303 314 331 340 330 339 343 347 348 353 2 3 11 17 28 33 33 29 27 64 103 110 123 125 108 97 88 87 79
nan nan nan 254 246 246 250 259 262 266 273 285 289 293 295 296 301 305 313 306 290 274 266 263 260 260 260 257 254 249 253 254 251 242 241 238 237 234 232 227 222 217 222 221 226 229 236 237 242 248 264 272 285 294 299 299 299 310 323 332 330 330 338 346 347 348 353 355 4 8 20 29 30 29 22 33 73 106 123 125 124 126 126 114 109
nan 244 nan 245 247 245 246 256 259 265 274 277 282 284 289 294 299 303 304 305 296 283 273 269 267 267 264 260 261 257 255 257 257 251 254 249 243 240 237 236 232 222 228 232 231 234 239 246 248 257 265 275 286 294 298 301 299 304 319 327 328 325 331 338 341 340 342 344 355 8 9 13 23 28 17 16 36 73 116 137 128 133 119 98 84
nan 234 238 240 245 242 244 254 258 266 270 270 271 276 281 284 291 290 292 295 299 293 285 275 270 269 266 266 263 261 261 262 260 257 260 256 249 246 246 241 238 234 231 237 241 239 242 250 252 258 267 275 281 288 293 298 306 308 310 318 320 326 330 334 337 338 337 336 346 3 6 6 9 19 22 4 6 59 127 132 139 162 172 130 67
nan nan nan 230 239 246 248 254 261 266 267 267 267 268 271 273 280 283 284 289 293 295 291 284 277 274 269 269 269 266 262 261 258 255 254 256 255 253 251 250 245 242 240 239 246 246 245 253 257 260 270 276 282 288 288 295 297 300 305 309 318 324 329 329 334 339 339 337 345 358 9 7 4 8 23 12 350 1 156 148 172 179 185 158 69
227 226 222 225 235 245 245 251 256 257 259 260 263 263 263 268 274 277 282 285 285 294 298 293 286 279 273 275 272 269 266 259 255 250 250 253 256 254 252 251 250 249 248 247 249 252 251 254 260 262 269 274 281 286 290 292 294 294 298 306 312 319 329 332 334 337 342 342 344 354 11 13 2 349 358 9 354 308 266 203 197 201 207 216 124
nan 231 231 231 236 240 244 248 250 252 255 258 260 261 258 260 267 274 281 287 285 289 297 299 295 290 281 276 270 266 263 261 258 254 251 250 253 254 253 253 253 250 249 252 251 255 257 260 264 266 271 275 281 285 285 289 292 296 298 309 314 318 324 328 332 338 337 337 341 347 2 22 345 329 343 336 329 258 265 254 227 211 208 216 197
nan 230 227 228 231 237 240 243 243 246 251 256 257 259 264 266 269 275 279 282 281 288 295 300 301 296 287 280 273 267 266 265 262 259 254 251 250 252 255 258 257 254 251 250 251 253 260 264 267 271 272 274 278 279 285 300 295 290 301 303 308 311 318 321 324 330 335 335 340 346 355 11 358 329 324 330 336 296 256 242 237 227 216 212 217
211 210 214 221 223 228 234 237 239 239 246 251 253 259 264 269 267 270 274 280 284 285 293 297 297 295 292 288 280 274 270 269 267 263 259 254 251 249 250 253 256 256 252 251 252 258 259 264 269 271 276 276 278 279 293 297 300 302 299 303 305 308 314 319 323 321 323 327 329 335 336 351 325 304 302 320 328 334 332 316 248 206 198 201 208
214 211 211 208 212 217 225 232 237 239 244 249 252 260 265 270 273 274 275 278 281 285 291 289 291 291 294 297 291 285 278 273 270 269 266 261 254 251 251 253 257 261 254 254 256 256 255 259 264 271 275 276 278 283 294 298 300 302 298 296 306 307 310 314 317 321 318 319 326 327 329 321 322 318 303 296 308 329 337 332 321 287 153 140 145
212 212 211 210 208 214 222 225 228 233 237 250 259 263 266 271 272 267 264 270 274 281 283 284 288 291 294 295 294 292 287 280 276 273 270 266 262 257 257 258 261 258 257 253 254 257 258 257 259 267 273 277 277 284 293 298 299 300 304 297 299 307 310 311 313 318 317 314 313 314 317 313 306 321 312 309 292 307 333 342 326 327 303 83 95
211 211 210 206 211 211 210 215 224 226 231 242 251 260 263 263 259 254 255 258 266 272 276 283 284 289 292 294 294 293 293 288 281 276 273 272 270 265 262 259 256 256 256 256 258 258 257 259 259 262 266 273 275 282 294 296 297 299 302 296 292 303 307 308 309 312 312 314 314 310 311 314 315 299 292 298 289 289 294 298 281 266 255 261 319
212 210 209 209 209 209 209 206 209 221 227 235 245 253 257 260 261 261 258 257 266 270 273 278 283 287 291 296 297 294 294 291 286 282 278 277 275 268 265 261 259 260 259 258 258 259 258 261 264 265 267 271 270 285 294 296 295 299 299 292 296 291 290 296 300 305 305 310 312 312 312 314 311 312 305 301 289 285 280 269 278 277 273 260 274
209 209 209 209 209 210 209 211 212 213 227 235 243 250 255 259 261 261 258 259 263 266 271 276 280 286 291 294 295 298 295 292 288 285 283 281 278 273 268 263 259 260 259 259 258 258 261 264 265 267 268 272 271 287 294 296 296 297 295 283 296 294 288 289 294 297 301 301 306 307 306 313 314 316 318 314 293 280 276 263 253 252 252 258 268
207 208 208 208 208 210 210 213 215 214 221 238 243 249 250 254 258 261 261 261 264 269 275 278 279 283 289 292 293 299 297 294 289 287 285 284 281 276 270 264 262 261 263 262 261 260 258 263 267 268 270 269 271 283 294 295 295 297 285 281 291 290 292 296 293 296 298 301 304 304 306 305 315 319 321 313 308 294 289 260 231 229 240 245 254
206 208 208 208 210 210 209 212 218 220 220 233 244 249 250 249 252 259 263 264 270 276 277 278 279 284 288 289 290 293 295 294 291 290 287 283 281 275 272 265 264 262 262 262 259 256 258 261 268 271 274 271 271 281 295 295 296 297 294 287 287 290 292 291 291 293 292 294 302 313 311 312 313 315 322 322 308 297 293 279 246 231 242 251 256
206 207 207 208 211 210 208 208 217 224 225 230 244 251 254 251 252 258 264 269 273 275 277 280 281 284 286 286 287 292 295 296 293 290 284 281 280 277 271 266 263 260 257 254 255 255 256 259 265 270 273 279 272 277 294 293 297 300 296 285 285 286 289 289 290 291 294 293 296 302 317 316 314 312 319 315 314 303 299 280 265 251 250 253 260
204 207 209 210 211 211 212 214 220 227 228 234 245 251 253 252 253 256 262 268 272 274 275 274 275 280 283 283 285 291 293 293 291 287 280 276 274 273 273 270 266 261 259 256 257 255 257 255 258 264 266 277 273 267 285 297 300 303 307 290 282 284 285 288 289 288 289 294 297 298 306 322 326 321 310 305 311 316 302 280 265 255 249 255 259
202 206 208 210 213 215 215 218 225 230 231 236 244 250 252 253 253 252 259 266 268 265 266 269 273 279 282 285 286 290 293 290 287 285 280 275 273 273 273 271 269 265 261 259 261 258 256 252 254 258 259 271 272 273 282 301 302 304 309 299 285 285 283 282 285 287 290 294 297 301 302 312 325 326 326 321 308 314 305 280 269 249 245 247 247
202 203 205 210 214 216 218 224 228 232 236 237 241 246 247 251 252 251 254 257 259 261 264 268 273 277 279 283 286 286 286 283 284 284 281 276 272 273 272 273 268 265 266 265 261 255 254 253 253 256 257 262 273 287 273 299 302 305 308 310 288 287 283 283 284 287 293 296 299 301 300 304 318 321 326 331 333 313 307 270 260 244 239 243 249
201 203 204 206 211 214 219 226 230 235 238 237 243 245 247 249 250 247 244 249 255 258 262 266 269 271 274 280 283 287 284 281 285 288 284 276 270 271 271 270 269 267 269 268 264 260 256 253 253 257 258 259 260 273 282 283 298 303 309 311 308 289 292 286 290 294 297 300 298 299 296 298 308 316 319 327 328 319 285 271 254 237 244 248 257
201 201 201 202 203 208 216 224 227 234 238 239 240 242 243 245 245 239 239 245 252 254 256 261 263 266 272 277 281 286 286 282 286 285 278 271 268 267 266 265 266 266 267 267 262 263 259 258 258 257 258 260 258 255 274 288 289 304 304 313 317 311 289 293 296 295 296 299 298 296 288 291 303 308 310 308 305 301 286 279 264 262 261 265 269
201 200 199 197 197 209 213 220 226 232 236 237 239 239 240 240 238 237 238 243 249 251 253 256 261 264 269 273 278 281 285 283 285 285 277 270 268 266 263 262 264 266 265 264 265 263 261 257 254 254 253 256 257 261 256 278 297 303 308 316 323 331 323 299 296 296 294 269 261 259 272 293 300 305 307 298 288 285 284 269 257 253 263 275 281
203 203 198 194 195 202 207 208 213 231 231 232 233 235 235 234 236 237 239 241 246 248 249 253 256 260 266 273 279 282 283 284 286 281 273 265 264 263 260 259 261 263 260 259 260 259 258 256 250 245 243 244 246 245 249 262 274 292 300 317 326 334 336 325 312 264 259 264 265 265 267 274 277 280 281 285 289 287 293 288 278 274 275 278 281
204 200 195 195 199 204 207 210 210 218 226 231 230 230 231 232 235 239 241 242 244 245 246 248 251 256 263 269 276 276 278 281 283 277 271 265 261 259 259 257 257 257 256 254 252 252 250 248 245 237 236 235 235 237 240 250 262 263 270 285 298 301 322 320 312 291 292 278 279 278 281 278 278 289 283 282 282 281 284 286 287 287 285 283 285
203 200 196 198 201 207 210 210 210 212 211 216 222 223 227 229 234 237 239 240 240 241 244 246 251 253 258 265 269 272 276 275 278 275 270 265 259 256 255 255 250 246 246 247 246 243 241 242 239 239 238 238 239 239 245 252 265 272 278 282 291 295 296 299 307 311 304 297 289 287 290 292 295 299 300 301 299 295 295 293 294 294 291 288 276
203 202 200 202 202 205 209 211 211 211 212 210 216 217 222 227 230 231 235 237 236 239 241 246 248 249 254 258 263 267 267 268 270 272 258 240 238 246 248 244 241 231 232 240 247 243 243 241 241 245 248 246 246 252 256 266 273 284 288 290 293 296 297 297 307 310 300 299 292 294 297 300 302 304 309 311 308 303 303 301 298 295 294 291 286
204 204 203 202 204 205 205 205 209 212 214 216 211 211 215 221 223 227 231 229 232 235 241 245 247 248 253 256 256 257 259 259 264 266 254 244 234 230 223 224 233 223 227 226 231 235 233 234 240 238 232 242 247 247 250 268 280 290 292 295 295 296 301 299 302 306 298 300 300 296 303 306 305 306 308 306 305 303 303 301 299 297 291 289 291
204 207 205 205 205 205 205 206 203 210 215 215 213 212 209 208 210 218 223 225 230 234 238 245 247 248 250 251 248 249 252 252 256 257 255 251 242 230 226 228 232 234 234 235 236 236 232 231 237 247 240 237 249 257 260 265 270 274 278 283 289 294 299 296 293 292 294 302 303 304 305 300 301 305 306 306 304 302 301 300 298 294 291 289 288